Location: Sevilla
(37.3933°N, 5.9839°W)
Time: 05:00:24
(UTC+02:00)

Vanguard 3 - Pass Details

Date: 03 July 2024
Orbit: 508 x 3231 km, 33.4° (Epoch: 15 July)

Event Time Altitude Azimuth Distance (km) Brightness Sun altitude
Rises 12:36:20 0° 279° (W) 6,019 11.3 61.9°
Reaches altitude 10° 12:41:09 10° 275° (W) 4,563 10.8 62.8°
Maximum altitude 12:51:51 46° 208° (SSW) 1,748 9.6 64.7°
Drops below altitude 10° 12:58:03 10° 136° (SE) 2,668 10.3 65.8°
Sets 13:00:11 0° 129° (SE) 3,370 10.7 66.2°
